Location: Bednik
(45.3500°N, 16.3833°E)
Time: 16:33:41
(UTC+00:00)

USA 234 - Pass Details

Date: 08 August 2020
Orbit: 1101 x 1107 km, 123.0° (Epoch: 22 September)

Event Time Altitude Azimuth Distance (km) Brightness Sun altitude
Exits shadow 18:31:22 - 93° (E) 3,801 5.5 -3.9°
Reaches altitude 10° 18:33:40 10° 87° (E) 2,959 5.0 -4.3°
Maximum altitude 18:39:42 42° 19° (NNE) 1,528 4.2 -5.2°
Drops below altitude 10° 18:45:46 10° 312° (NW) 2,968 7.2 -6.1°
Sets 18:48:23 0° 306° (NW) 3,928 8.7 -6.5°
